Regional Weather Roundup
Issued by NWS Charleston, SC

Current Version | Previous Version | Text Only | Print | Product List | Glossary Off
Versions: 1 2 3 4 5 6 7 8 9 10 11 12 13 14 15 16 17 18 19 20 21 22 23 24 25 26 27 28 29 30 31 32 33 34 35 36 37 38 39 40 41 42 43 44 45 46 47 48 49 50

176
ASUS42 KCHS 031828
RWRCHS

REGIONAL WEATHER ROUNDUP
NATIONAL WEATHER SERVICE CHARLESTON SC
200 PM EDT TUE MAY 03 2016

NOTE: "FAIR" INDICATES FEW OR NO CLOUDS BELOW 12,000 FEET WITH NO
SIGNIFICANT WEATHER AND/OR OBSTRUCTIONS TO VISIBILITY.

NOT ALL STATIONS ARE QUALITY CONTROLLED. USE DATA WITH CAUTION...
ESPECIALLY DEWPOINT OBSERVATIONS.

SCZ027-030-031-034>040-042>050-031900-
...SOUTHEAST SOUTH CAROLINA...

CITY           SKY/WX    TMP DP  RH WIND       PRES   REMARKS
N CHARLESTON   CLOUDY    83  71  67 W8        29.82F
6HR MIN TEMP:  75; 6HR MAX TEMP:  85; 6HR PCP:  0.07;

WATERFRONT PRK   N/A     79  71  76 W6        29.81F
MOUNT PLEASANT FAIR      79  73  83 SW6       29.82F
JOHNS ISLAND   FAIR      86  70  58 W10G16    29.82F HX  90
PINOPOLIS        N/A     82  70  65 W7        29.74F
MONCKS CORNER  MOCLDY    84  61  45 W6        29.80F
SUMMERVILLE    MOCLDY    86  66  51 W8        29.82F
BEAUFORT MCAS  PTSUNNY   86  67  52 SW13      29.83F
6HR MIN TEMP:  74; 6HR MAX TEMP:  86;

BEAUFORT ARPT  FAIR      84  64  51 W14G20    29.83F
HILTON HEAD IS MOSUNNY   84  66  54 W12G21    29.85F
WALTERBORO     MOCLDY    86  63  45 SW9       29.82F
ALLENDALE      FAIR      84  64  51 VRB7G14   29.81F

...SOUTHERN MIDLANDS AND PEE DEE...

CITY           SKY/WX    TMP DP  RH WIND       PRES   REMARKS
GEORGETOWN     MOCLDY    82  66  57 S8        29.82F
KINGSTREE      FAIR      81  64  57 SW15      29.80F
ORANGEBURG     MOSUNNY   82  64  54 W12       29.82F
6HR MIN TEMP:  70; 6HR MAX TEMP:  84;

BARNWELL       FAIR      88  66  48 W12G21    29.83F HX  90
AIKEN          MOCLDY    77  63  61 SW9       29.86F
MANNING        MOCLDY    81  66  61 W10       29.80F
COLUMBIA       PTSUNNY   83  64  52 W13       29.80F
6HR MIN TEMP:  69; 6HR MAX TEMP:  84; 6HR PCP:  0.09;

SUMTER         MOSUNNY   82  65  58 W6        29.79F
6HR MIN TEMP:  66; 6HR MAX TEMP:  82;

FLORENCE       PTSUNNY   82  66  58 W12       29.81F
6HR MIN TEMP:  67; 6HR MAX TEMP:  82; 6HR PCP: TRACE;

MYRTLE BEACH   PTSUNNY   77  66  69 SE10      29.84F
N MYRTLE BEACH CLOUDY    73  67  81 E7        29.81F
6HR MIN TEMP:  68; 6HR MAX TEMP:  77; 6HR PCP:  0.56;


$$

GAZ063-065-086>088-099>101-113>116-118-119-134>141-150-031900-
...SOUTHEAST GEORGIA...

CITY           SKY/WX    TMP DP  RH WIND       PRES   REMARKS
SAVANNAH ARPT  PTSUNNY   85  66  53 W14       29.85F
6HR MIN TEMP:  72; 6HR MAX TEMP:  86; 6HR PCP: TRACE;

HUNTER AAF     PTSUNNY   85  71  62 SW13G21   29.82F HX  91
6HR MIN TEMP:  73; 6HR MAX TEMP:  86;

FORT STEWART   MOSUNNY   85  66  54 W10G21    29.84F
6HR MIN TEMP:  72; 6HR MAX TEMP:  85;

STATESBORO     MOSUNNY   87  71  60 SW8G16    29.84F HX  92
SYLVANIA       MOCLDY    84  70  61 W9G17     29.84F
CLAXTON        FAIR      84  70  61 W12       29.85F

...CSRA...CENTRAL AND FAR SOUTHEAST GEORGIA...

CITY           SKY/WX    TMP DP  RH WIND       PRES   REMARKS
THOMSON        MOSUNNY   81  69  65 W10G16    29.88F
AUGUSTA-BUSH   PTSUNNY   83  65  54 W8        29.82F
6HR MIN TEMP:  69; 6HR MAX TEMP:  84;

AUGUSTA-DANIEL RAIN      78  65  63 VRB5      29.84F
SWAINSBORO     MOCLDY    86  63  45 W10       29.86F
VIDALIA        MOSUNNY   82  64  54 W10G16    29.86F
EASTMAN        FAIR      83  65  53 W7G16     29.89F
HAZLEHURST     FAIR      85  67  53 W6        29.86F
ALMA           CLOUDY    81  69  67 W6        29.88F
6HR MIN TEMP:  69; 6HR MAX TEMP:  83; 6HR PCP:  0.44;

WAYCROSS       MOSUNNY   85  68  56 W10       29.88F
JESUP          MOCLDY    86  72  62 W8        29.87F HX  92
BAXLEY         FAIR      86  68  54 W8        29.86F
BRUNSWICK      PTSUNNY   86  73  66 CALM      29.87F HX  93
SAINT SIMONS   SUNNY     82  70  66 SW12      29.87F
6HR MIN TEMP:  72; 6HR MAX TEMP:  83; 6HR PCP:  0.09;


$$

SCZ027-028-034-036>038-045-046-048>050-GAZ119-141-031900-
...LAKE AND SUPPLEMENTAL COASTAL OBSERVATIONS...

STATION/POSITION TIME  TEMP    WIND        PRES    WAVE   SWELL
                       AIR SEA DIR/SP/G            HT/PER HT/PER/DIR
                 (UTC) (F)     (DEG/KT/KT) (MB)    (FT/S) (FT/S/D)
WINYAH BAY       1700   80     260/  5     1010.0S
LAKE MURRAY      1700   76     220/  9/ 11 1009.8F
ACE BASIN NERRS  1700   83     260/  5     1011.0S
FORT PULASKI     1800   82 76  240/  8/ 11 1010.9F
SAPELO ISLAND    1800   83     260/ 12     1011.0F

$$

ANZ835-935-AMZ111-154-330-350-352-354-370-450-454-472-031900-
...C-MAN AND BUOY OBSERVATIONS...

STATION/POSITION TIME  TEMP    WIND        PRES    WAVE   SWELL
                       AIR SEA DIR/SP/G            HT/PER HT/PER/DIR
                 (UTC) (F)     (DEG/KT/KT) (MB)    (FT/S) (FT/S/D)
BUOY 41004       1750   74 75  210/ 12/ 16 1010.1F   5/ 7   3/ 7
BUOY 41008       NOT AVBL
FOLLY BEACH CMAN 1800   76     170/  8/ 10 1010.3F
CAPERS NEARSHORE 1708   74 73  250/ 10/ 14 1010.6F
FRIPP NEARSHORE  1808   77 73  220/ 10/ 12 1009.8F


STATION/POSITION TIME  TEMP    WIND        PRES    WAVE   SWELL
                       AIR SEA DIR/SP/G            HT/PER HT/PER/DIR
                 (UTC) (F)     (DEG/KT/KT) (MB)    (FT/S) (FT/S/D)
5E ST. MARYS GA  1721      73                N/A     3/11   2/ 80/11
FRYING PAN BUOY  1800   72 73  150/  8/ 12 1010.4F
BUOY 41025       1750   70 71  230/ 14/ 17 1010.8F   5/ 7   3/180/ 7
CAPE LOOKOUT NC  1800   67     190/ 10/ 12 1009.8F
BUOY 41002       1750   74 74  180/ 16/ 19 1014.2F   4/ 5   2/ 40/ 9
BUOY 41010       1720   78 78  200/ 16/ 17 1013.9F
ST AUGUSTINE FL  1800   86 72  240/ 11/ 15 1012.8F


$$




USA.gov is the U.S. government's official web portal to all federal, state and local government web resources and services.